Regional Weather Roundup
Issued by NWS Albany, NY

Home | Current Version | Previous Version | Text Only | Print | Product List | Glossary On
Versions: 1 2 3 4 5 6 7 8 9 10 11 12 13 14 15 16 17 18 19 20 21 22 23 24 25 26 27 28 29 30 31 32 33 34 35 36 37 38 39 40 41 42 43 44 45 46 47 48 49 50
000
ASUS41 KALY 230610
RWRALY

NEW YORK STATE HOURLY WEATHER ROUNDUP
NATIONAL WEATHER SERVICE ALBANY NY
200 AM EDT WED JUL 23 2014

NOTE: "FAIR" INDICATES FEW OR NO CLOUDS BELOW 12,000 FEET WITH NO
SIGNIFICANT WEATHER AND/OR NO OBSTRUCTIONS TO VISIBILITY.

NYZ032-033-038>043-046>054-057>066-NYZ062>081-230700-
EAST


CITY           SKY/WX    TMP DP  RH WIND       PRES   REMARKS
ALBANY         PTCLDY    76  69  79 S6        29.95F
GLENS FALLS    PTCLDY    75  69  81 S7        29.93F
POUGHKEEPSIE   CLEAR     71  68  90 CALM      29.99F
NEWBURGH       PTCLDY    73  70  88 SW6       30.03F
MONTGOMERY     CLEAR     71  68  90 CALM      30.01F
WHITE PLAINS   CLEAR     74  64  71 SW5       30.02F
ISLIP          CLEAR     73  66  78 SW7       30.02F
NEW YORK CITY  PTCLDY    76  62  62 SW8       30.02F
CENTRAL PARK   CLEAR     76  62  62 SW5       30.05F
$$

NYZ005>009-017-018-044>046-055-056-230700-
CENTRAL


CITY           SKY/WX    TMP DP  RH WIND       PRES   REMARKS
FULTON         CLEAR     76  69  79 S9        29.91F
SYRACUSE       PTCLDY    80  69  69 SW10G18   29.92F
ROME           CLEAR     72  68  87 E3        29.94F
ELMIRA         CLEAR     70  68  93 CALM      29.99F
BINGHAMTON     CLEAR     71  67  87 SW7       30.03F
MONTICELLO     CLEAR     66  64  94 CALM      30.06F
$$

NYZ026>034-041>043-230700-
NORTH


CITY           SKY/WX    TMP DP  RH WIND       PRES   REMARKS
WATERTOWN      CLEAR     77  67  71 S10       29.86F
FORT DRUM      NOT AVBL
MASSENA        CLEAR     74  66  76 SW7       29.84S
SARANAC LAKE   CLEAR     59  57  93 CALM      29.93F FOG
PLATTSBURGH    PTCLDY    66  64  93 CALM      29.85F
$$

NYZ001>004-010>016-019>021-230700-
WEST


CITY           SKY/WX    TMP DP  RH WIND       PRES   REMARKS
NIAGARA FALLS  CLEAR     74  66  76 S10       29.90F
BUFFALO        PTCLDY    73  66  78 S8        29.92F
DUNKIRK        CLEAR     76  67  73 S12G21    29.94F
JAMESTOWN      CLEAR     70  66  88 S6        30.03F
WELLSVILLE     CLEAR     73  66  78 SW5       30.06F
ROCHESTER      CLEAR     71  69  93 SW5       29.92F
PENN YAN       CLEAR     75  69  81 S8        29.96F
$$

             KEY
       WCI = WIND CHILL INDEX
       VSB = VISIBILITY
       HX  = HEAT INDEX
$$



USA.gov is the U.S. government's official web portal to all federal, state and local government web resources and services.